, NV

(GMT )
Las Vegas

Weather History for KBJN - July, 2013

Change the Weather History Date:

Thursday, July 11, 2013

  Actual Average Record
Temperature  
Mean Temperature 70 °F -  
Max Temperature 75 °F - - ()
Min Temperature 61 °F - - ()
Cooling Degree Days 4    
Growing Degree Days 20 (Base 50)    
Moisture  
Dew Point 45 °F    
Average Humidity 42    
Maximum Humidity 62    
Minimum Humidity 22    
Precipitation  
Precipitation 0.00 in - - ()
Sea Level Pressure  
Sea Level Pressure 30.37 in    
Wind  
Wind Speed 12 mph (WNW)    
Max Wind Speed 25 mph    
Max Gust Speed 32 mph    
Visibility 10 miles    
Events Rain    
T = Trace of Precipitation, MM = Missing Value Source: NWS Daily Summary

Daily Weather History Graph

Daily Weather History Graph

Search for Another Location

Airport or City:

Trip Planner

Search our weather history database for the weather conditions in past years. The results will help you decide how hot, cold, wet, or windy it might be!

Date:

Astronomy

Jul. 11, 2013 Rise Set
Actual Time 5:33 AM PDT 8:07 PM PDT
Civil Twilight 5:02 AM PDT 8:38 PM PDT
Nautical Twilight 4:24 AM PDT 9:16 PM PDT
Astronomical Twilight 3:42 AM PDT 9:58 PM PDT
Moon 8:51 AM PDT (7/11) 9:56 PM PDT (7/11)
Length of Visible Light 15h 35m
Length of Day
14h 34m
Waxing Crescent, 11% of the Moon is Illuminated
Jul 11
Waxing Crescent
Jul 15
First Quarter
Jul 22
Full
Jul 29
Last Quarter
Aug 6
New

Hourly Weather History & Observations

Time (PDT) Temp. Dew Point Humidity Pressure Visibility Wind Dir Wind Speed Gust Speed Precip Events Conditions
12:56 AM 75.9 °F 34.0 °F 22% 30.35 in 10.0 mi WNW 11.5 mph - N/A   Unknown
1:56 AM 75.9 °F 35.1 °F 23% 30.34 in 10.0 mi NW 10.4 mph - N/A   Unknown
2:56 AM 75.0 °F 36.0 °F 24% 30.34 in 10.0 mi WNW 15.0 mph - N/A   Unknown
3:56 AM 73.0 °F 39.0 °F 29% 30.34 in 10.0 mi WNW 19.6 mph 28.8 mph N/A   Unknown
4:56 AM 70.0 °F 43.0 °F 38% 30.35 in 10.0 mi NW 24.2 mph 31.1 mph N/A   Unknown
5:56 AM 69.1 °F 45.0 °F 42% 30.37 in 10.0 mi NW 25.3 mph 32.2 mph N/A   Unknown
6:56 AM 66.0 °F 48.9 °F 54% 30.38 in 10.0 mi NW 21.9 mph - 0.00 in Rain Light Rain
7:56 AM 68.0 °F 46.9 °F 47% 30.39 in 10.0 mi NW 18.4 mph 29.9 mph 0.00 in   Unknown
8:56 AM 68.0 °F 48.0 °F 49% 30.40 in 10.0 mi WNW 17.3 mph - N/A Rain Light Rain
9:56 AM 69.1 °F 48.0 °F 47% 30.41 in 10.0 mi WNW 15.0 mph - 0.00 in   Unknown
10:56 AM 70.0 °F 48.9 °F 47% 30.40 in 10.0 mi NW 12.7 mph - N/A   Unknown
11:56 AM 71.1 °F 46.9 °F 42% 30.41 in 10.0 mi WSW 6.9 mph - N/A   Unknown
12:56 PM 71.1 °F 48.0 °F 44% 30.41 in 10.0 mi WNW 6.9 mph - N/A   Unknown
2:56 PM 71.1 °F 46.0 °F 41% 30.38 in 10.0 mi WNW 6.9 mph - N/A   Unknown
3:56 PM 71.1 °F 46.0 °F 41% 30.36 in 10.0 mi Calm Calm - N/A   Unknown
4:56 PM 72.0 °F 45.0 °F 38% 30.35 in 10.0 mi South 6.9 mph - N/A   Unknown
5:56 PM 71.1 °F 45.0 °F 39% 30.33 in 10.0 mi SE 3.5 mph - N/A   Unknown
6:56 PM 71.1 °F 46.0 °F 41% 30.34 in 10.0 mi SW 4.6 mph - N/A   Unknown
7:56 PM 69.1 °F 48.0 °F 47% 30.35 in 10.0 mi WSW 6.9 mph - N/A   Unknown
8:56 PM 68.0 °F 48.9 °F 50% 30.36 in 10.0 mi West 5.8 mph - N/A   Unknown
9:56 PM 66.0 °F 48.0 °F 52% 30.38 in 10.0 mi NE 3.5 mph - N/A   Unknown
10:56 PM 64.9 °F 48.9 °F 56% 30.38 in 10.0 mi Calm Calm - N/A   Unknown
11:56 PM 61.0 °F 48.0 °F 62% 30.38 in 10.0 mi Calm Calm - N/A   Unknown